[[{"header":{"parameterUnit":"m.s-1","parameterCategory":1,"la1":30.2991,"la2":30.254,"lo1":-89.0895,"lo2":-89.0444,"dy":0.0017,"dx":0.0017,"nx":28,"ny":28,"refTime":"2023-10-16T09:00:00:Z","depth":0,"parameterNumber":2,"parameterNumberName":"U-component_of_WINDS"},"data":[0,0,0,0,0,0,0,0,0,0,0,0,0,0,0,0,0,0,0,0,0,0,0,0,0,0,0,0,0,0,0,0,0,0,0,0,0,0,0,0,0,0,0,0,0,0,0,0,0,0,0,0,0,0,0,0,0,0,1.1839,1.1839,0,1.1895,1.1895,1.1896,1.1892,1.1892,1.1891,1.189,1.1951,1.1953,1.1956,0,0,0,0,0,0,0,0,0,0,0,0,0,1.1732,1.1734,1.1839,1.1839,1.184,1.1894,1.1895,1.1896,1.1892,1.1891,1.189,1.189,1.195,1.1953,1.1956,0,0,0,0,0,0,0,0,0,0,0,0,0,1.1782,1.1735,1.1838,1.1845,1.1846,1.1894,1.1895,1.1896,1.1893,1.1891,1.189,1.1889,1.1949,1.1953,1.1956,1.2003,0,0,1.1967,1.1969,0,0,0,0,0,0,0,0,1.1779,1.1786,1.1843,1.1844,1.1846,1.1885,1.188,1.1932,1.1893,1.1875,1.189,1.1888,1.193,1.1935,1.1949,1.2006,1.2009,1.1967,1.197,1.1971,1.1972,0,0,0,0,0,0,0,1.1776,1.1784,1.1861,1.1844,1.1845,1.1846,1.1852,1.189,1.1909,1.1876,1.1876,1.1883,1.1931,1.1945,1.195,1.201,1.1967,1.1971,1.1973,1.1974,1.2109,1.2111,0,0,0,0,0,0,1.1771,1.1781,1.1859,1.1862,1.1809,1.1849,1.1855,1.1874,1.1909,1.1913,1.1884,1.1882,1.194,1.1946,1.1952,1.201,1.1971,1.1974,1.1977,1.2108,1.211,1.2111,0,0,0,0,0,0,1.1768,1.1778,1.1857,1.1822,1.1832,1.1852,1.1873,1.1876,1.189,1.1914,1.1918,1.1895,1.1939,1.1947,1.199,1.2012,1.1976,1.1979,1.2106,1.2108,1.211,1.2125,0,0,0,0,0,0,1.1765,1.1777,1.1794,1.1822,1.1834,1.1893,1.1874,1.1878,1.1896,1.1894,1.1925,1.1929,1.1939,1.1985,1.1994,1.2016,1.1982,1.2104,1.2107,1.211,1.2123,1.2128,1.2132,0,0,0,0,0,1.1761,1.1797,1.1795,1.1804,1.1855,1.1894,1.1901,1.191,1.1897,1.1915,1.1931,1.1928,1.2008,1.199,1.2,1.2023,1.2103,1.2106,1.2109,1.2121,1.2127,1.2132,0,0,0,0,0,0,1.1771,1.18,1.1799,1.1844,1.1866,1.1893,1.1916,1.1916,1.1943,1.1941,1.1952,1.1959,1.2002,1.2017,1.1996,1.2071,1.2054,1.206,1.2059,1.2065,1.2069,1.2065,1.1985,0,0,0,0,0,1.1779,1.1807,1.1831,1.1868,1.188,1.1896,1.1913,1.1918,1.1943,1.1953,1.1971,1.1996,1.2027,1.2047,1.2076,1.2125,1.2132,1.2147,1.2151,1.2154,1.2159,1.2186,1.2193,1.2122,1.2122,1.2122,0,0,1.1794,1.1814,1.1831,1.1871,1.1889,1.1919,1.1904,1.1936,1.1959,1.1958,1.1999,1.2014,1.2043,1.2089,1.2111,1.2103,1.218,1.2158,1.2161,1.2164,1.219,1.2197,1.2203,1.2124,1.2124,1.2123,0,0,1.1838,1.1855,1.1888,1.1906,1.1934,1.1945,1.1953,1.198,1.1989,1.2031,1.2031,1.2059,1.2111,1.2132,1.2149,1.2201,1.22,1.2211,1.2233,1.226,1.2266,1.2271,1.2289,1.2296,1.2215,1.2215,1.2215,0,1.1854,1.1898,1.1906,1.1938,1.1956,1.1955,1.199,1.2007,1.2044,1.2057,1.2047,1.2113,1.2132,1.2184,1.2196,1.221,1.2221,1.2207,1.2264,1.2269,1.2274,1.2292,1.2299,1.2216,1.2216,1.2216,1.2216,0,1.1917,1.1947,1.1971,1.2004,1.2025,1.2059,1.2072,1.2093,1.2096,1.2108,1.2152,1.2175,1.2209,1.2222,1.2225,1.2274,1.2268,1.2261,1.2245,1.2282,1.2299,1.2306,1.2218,1.2217,1.2217,1.2217,0,0,1.1967,1.2005,1.2014,1.2029,1.206,1.2084,1.2118,1.215,1.2168,1.2193,1.2222,1.2267,1.2261,1.228,1.2287,1.231,1.235,1.2301,1.2302,1.2309,1.2406,1.241,1.2418,1.235,1.2351,1.2352,1.2403,0,1.2014,1.2072,1.2081,1.2133,1.2162,1.2162,1.2191,1.2214,1.2227,1.2254,1.2268,1.23,1.2289,1.2301,1.2324,1.234,1.237,1.2337,1.2378,1.2379,1.237,1.2427,1.2432,1.2479,1.241,1.2411,1.2412,0,1.2076,1.2102,1.2157,1.2183,1.2196,1.2222,1.2253,1.2279,1.2305,1.2312,1.2334,1.2338,1.2374,1.2356,1.2407,1.2384,1.2402,1.2412,1.2414,1.2418,1.2398,1.2433,1.2494,1.2501,1.2423,1.2422,1.2421,0,1.2108,1.2157,1.2196,1.2209,1.2241,1.226,1.2274,1.2299,1.2318,1.2346,1.2358,1.239,1.2408,1.2433,1.2445,1.2431,1.2495,1.2478,1.2503,1.2503,1.2517,1.2516,1.2582,1.2528,1.2528,1.2528,1.2528,0,1.2159,1.2193,1.221,1.2234,1.2272,1.2282,1.232,1.2334,1.2356,1.2384,1.2387,1.2413,1.2428,1.2457,1.2467,1.2507,1.2515,1.2523,1.2526,1.2523,1.2522,1.2534,1.2531,1.253,1.2529,1.2529,1.2529,0,1.2201,1.2214,1.2256,1.2283,1.2291,1.2318,1.2342,1.2366,1.2378,1.2413,1.2422,1.2442,1.2476,1.2491,1.2533,1.254,1.2587,1.2587,1.2577,1.2578,1.2602,1.26,1.2679,1.269,1.2629,1.263,1.263,0,1.2232,1.2258,1.2288,1.2306,1.2321,1.235,1.2369,1.2381,1.2401,1.2433,1.2453,1.2487,1.2515,1.2569,1.2588,1.2621,1.2622,1.2647,1.2627,1.2623,1.2622,1.2621,1.2623,1.2651,1.2652,1.2652,1.2652,0,1.2287,1.2292,1.232,1.235,1.2372,1.2397,1.2421,1.2436,1.2451,1.2474,1.2508,1.253,1.2572,1.2606,1.264,1.2656,1.2657,1.2659,1.2666,1.2664,1.2657,1.2661,1.2587,1.2657,1.2656,1.2656,1.2656,1.2656,1.2325,1.2348,1.2372,1.2403,1.2422,1.2444,1.2468,1.2483,1.2512,1.2546,1.2552,1.2589,1.2615,1.266,1.2678,1.2708,1.2701,1.2712,1.2715,1.2718,1.2719,1.2653,1.2714,1.2714,1.2714,1.2714,1.2713,0,1.238,1.2396,1.2424,1.2456,1.2481,1.2479,1.2505,1.2526,1.2558,1.2582,1.2609,1.2649,1.2681,1.2703,1.2737,1.2756,1.2758,1.2765,1.2763,1.2767,1.2723,1.2713,1.2763,1.2763,1.2763,1.2763,1.2763,1.2763,1.2411,1.245,1.2458,1.2507,1.2523,1.2558,1.2573,1.2594,1.2613,1.2657,1.2684,1.2698,1.2721,1.2757,1.2787,1.2793,1.2805,1.2813,1.2818,1.2776,1.277,1.2766,1.2756,1.2815,1.2815,1.286,1.2861,1.2861]},{"header":{"parameterUnit":"m.s-1","parameterCategory":1,"la1":30.2991,"la2":30.254,"lo1":-89.0895,"lo2":-89.0444,"dy":0.0017,"dx":0.0017,"nx":28,"ny":28,"refTime":"2023-10-16T09:00:00:Z","depth":0,"parameterNumber":3,"parameterNumberName":"V-component_of_WINDS"},"data":[0,0,0,0,0,0,0,0,0,0,0,0,0,0,0,0,0,0,0,0,0,0,0,0,0,0,0,0,0,0,0,0,0,0,0,0,0,0,0,0,0,0,0,0,0,0,0,0,0,0,0,0,0,0,0,0,0,0,0.4076,0.4075,0,0.4018,0.4017,0.4017,0.3928,0.3926,0.3924,0.3923,0.3864,0.3864,0.3864,0,0,0,0,0,0,0,0,0,0,0,0,0,0.4108,0.4108,0.4076,0.4075,0.4075,0.4018,0.4017,0.4017,0.3928,0.3926,0.3924,0.3922,0.3864,0.3864,0.3864,0,0,0,0,0,0,0,0,0,0,0,0,0,0.4077,0.4108,0.4076,0.4024,0.4018,0.4018,0.4017,0.4016,0.3928,0.3926,0.3924,0.3921,0.3864,0.3864,0.3864,0.391,0,0,0.3863,0.3863,0,0,0,0,0,0,0,0,0.4078,0.4075,0.4032,0.4027,0.4021,0.3978,0.4007,0.3981,0.3929,0.3963,0.3923,0.392,0.3904,0.39,0.3894,0.3908,0.3905,0.3863,0.3863,0.3863,0.3863,0,0,0,0,0,0,0,0.4081,0.4077,0.4053,0.4032,0.4025,0.4002,0.3995,0.4001,0.3947,0.3959,0.3953,0.3947,0.39,0.3895,0.3892,0.3904,0.3863,0.3863,0.3863,0.3863,0.3948,0.3951,0,0,0,0,0,0,0.4091,0.408,0.4055,0.4051,0.4045,0.4004,0.3996,0.3994,0.3947,0.3937,0.3949,0.3943,0.3896,0.3893,0.389,0.3938,0.3863,0.3863,0.3863,0.3946,0.3949,0.3951,0,0,0,0,0,0,0.4092,0.4089,0.4057,0.4064,0.4058,0.4005,0.4005,0.3994,0.3989,0.3939,0.3929,0.3954,0.3894,0.389,0.3905,0.3935,0.3863,0.3863,0.3943,0.3947,0.395,0.4037,0,0,0,0,0,0,0.4093,0.409,0.4108,0.4065,0.4058,0.4074,0.4006,0.3995,0.3989,0.398,0.3941,0.3932,0.3892,0.3906,0.3905,0.3933,0.3863,0.394,0.3945,0.3949,0.4032,0.4043,0.4054,0,0,0,0,0,0.4095,0.4136,0.411,0.4107,0.4079,0.4076,0.4072,0.4025,0.3992,0.4008,0.3976,0.3933,0.3932,0.3908,0.3906,0.3935,0.3938,0.3944,0.3949,0.4027,0.4041,0.4053,0,0,0,0,0,0,0.4185,0.413,0.41,0.4129,0.4108,0.4061,0.4081,0.4043,0.4031,0.4024,0.3966,0.3958,0.398,0.3959,0.3933,0.3976,0.3928,0.3934,0.3988,0.4002,0.4012,0.4016,0.3862,0,0,0,0,0,0.4209,0.4211,0.4162,0.4193,0.4183,0.4134,0.4131,0.4097,0.4073,0.4064,0.4033,0.4011,0.4005,0.4003,0.3995,0.4029,0.4017,0.4048,0.4059,0.4068,0.4073,0.4085,0.4097,0.3969,0.3969,0.3969,0,0,0.4257,0.4227,0.4232,0.421,0.419,0.4192,0.4128,0.4134,0.4134,0.4065,0.4075,0.4052,0.4024,0.4047,0.4056,0.4031,0.4105,0.4075,0.4083,0.4082,0.4091,0.4104,0.4114,0.3972,0.3972,0.3971,0,0,0.4345,0.4325,0.4345,0.4326,0.4295,0.4262,0.4267,0.4226,0.4207,0.4217,0.4164,0.4164,0.4156,0.4137,0.4126,0.4205,0.4163,0.4204,0.4261,0.4273,0.4283,0.4292,0.4316,0.4326,0.4209,0.4209,0.4209,0,0.4409,0.4411,0.4361,0.4369,0.436,0.4296,0.4315,0.4299,0.4268,0.4262,0.4235,0.4221,0.4198,0.4214,0.4233,0.4228,0.4229,0.4207,0.4286,0.4294,0.4301,0.4324,0.4334,0.4214,0.4214,0.4213,0.4213,0,0.4489,0.4491,0.4512,0.4482,0.4475,0.4489,0.4439,0.4438,0.4404,0.4373,0.4383,0.4352,0.4335,0.4337,0.4305,0.4348,0.4332,0.4297,0.4247,0.4319,0.4339,0.4348,0.4221,0.4219,0.4218,0.4217,0,0,0.4633,0.4573,0.4581,0.4565,0.4526,0.4527,0.4537,0.452,0.4518,0.4499,0.4504,0.4498,0.4463,0.4451,0.4416,0.4428,0.4487,0.4389,0.4388,0.4406,0.4528,0.4553,0.4564,0.446,0.4462,0.4463,0.4529,0,0.4711,0.4725,0.4679,0.4704,0.4703,0.4641,0.465,0.4626,0.4597,0.4592,0.456,0.4555,0.4512,0.4503,0.4512,0.4478,0.451,0.4473,0.4462,0.4462,0.4468,0.4575,0.4602,0.4666,0.4537,0.4538,0.4539,0,0.4804,0.4787,0.4812,0.4768,0.4766,0.4775,0.4754,0.475,0.4721,0.4699,0.4684,0.4643,0.4647,0.4602,0.4606,0.4582,0.4575,0.4557,0.4559,0.4554,0.4503,0.457,0.4686,0.4694,0.4552,0.4551,0.455,0,0.4901,0.4886,0.4898,0.4887,0.4837,0.4844,0.4824,0.4792,0.4784,0.4765,0.4758,0.4742,0.4732,0.4719,0.4673,0.4645,0.4681,0.4633,0.4661,0.4662,0.467,0.4669,0.4783,0.4671,0.4671,0.467,0.467,0,0.4992,0.5008,0.494,0.4948,0.4963,0.491,0.4927,0.4901,0.4873,0.4872,0.4819,0.4819,0.476,0.4753,0.4718,0.4725,0.4722,0.4702,0.4692,0.4705,0.4707,0.4698,0.4691,0.4673,0.4672,0.4672,0.4671,0,0.5103,0.5059,0.5066,0.5018,0.5006,0.502,0.4978,0.4981,0.4949,0.4949,0.4946,0.4894,0.4883,0.4836,0.4815,0.4791,0.4808,0.4791,0.4818,0.4811,0.484,0.4837,0.4949,0.496,0.4844,0.4845,0.4846,0,0.5162,0.5173,0.5125,0.5121,0.5102,0.5097,0.5087,0.5035,0.5027,0.4993,0.5,0.4984,0.4969,0.4954,0.4914,0.4896,0.4876,0.4916,0.4873,0.4884,0.4872,0.4871,0.487,0.4925,0.4927,0.4928,0.4929,0,0.527,0.5246,0.5235,0.5215,0.5205,0.5187,0.5166,0.5166,0.5107,0.51,0.5088,0.5076,0.5053,0.5037,0.5013,0.499,0.4949,0.4943,0.4948,0.496,0.4974,0.4963,0.484,0.494,0.4939,0.4938,0.4938,0.4937,0.5354,0.5359,0.5326,0.5314,0.5292,0.5273,0.5273,0.5239,0.5228,0.5205,0.5175,0.5165,0.5133,0.5095,0.5076,0.5067,0.5044,0.5052,0.5054,0.5056,0.5061,0.4978,0.5063,0.5062,0.5062,0.5062,0.5061,0,0.5456,0.5431,0.542,0.5391,0.5382,0.5344,0.5318,0.5312,0.5304,0.5278,0.5263,0.5248,0.5232,0.519,0.5169,0.517,0.515,0.5166,0.5164,0.5158,0.5084,0.508,0.5182,0.5182,0.5182,0.5182,0.5182,0.5182,0.5507,0.5513,0.5486,0.548,0.5455,0.5445,0.5433,0.5414,0.5392,0.5376,0.5363,0.5336,0.5302,0.5278,0.5261,0.5249,0.5242,0.5263,0.5245,0.5176,0.5164,0.5153,0.5149,0.5263,0.5263,0.5319,0.532,0.532]}]]